TimeCDT,TemperatureF,Dew PointF,Humidity,Sea Level PressureIn,VisibilityMPH,Wind Direction,Wind SpeedMPH,Gust SpeedMPH,PrecipitationIn,Events,Conditions,WindDirDegrees,DateUTC
12:53 AM,28.0,21.9,78,30.06,10.0,South,6.9,-,N/A,,Clear,180,2013-03-12 05:53:00
1:53 AM,28.9,21.9,75,30.07,10.0,South,3.5,-,N/A,,Clear,180,2013-03-12 06:53:00
2:53 AM,30.0,23.0,75,30.09,10.0,South,6.9,-,N/A,,Clear,180,2013-03-12 07:53:00
3:53 AM,32.0,21.0,64,30.09,10.0,Calm,Calm,-,N/A,,Clear,0,2013-03-12 08:53:00
4:53 AM,30.9,25.0,79,30.09,10.0,Calm,Calm,-,N/A,,Mostly Cloudy,0,2013-03-12 09:53:00
5:53 AM,33.1,26.1,75,30.12,10.0,Calm,Calm,-,N/A,,Mostly Cloudy,0,2013-03-12 10:53:00
6:53 AM,35.1,24.1,64,30.14,10.0,WSW,3.5,-,N/A,,Overcast,240,2013-03-12 11:53:00
7:53 AM,34.0,27.0,75,30.17,10.0,Calm,Calm,-,N/A,,Overcast,0,2013-03-12 12:53:00
8:53 AM,36.0,27.0,70,30.20,10.0,WNW,5.8,-,N/A,,Overcast,300,2013-03-12 13:53:00
9:53 AM,39.0,28.0,65,30.23,10.0,NNW,8.1,-,N/A,,Partly Cloudy,330,2013-03-12 14:53:00
10:53 AM,43.0,30.0,60,30.24,10.0,NW,5.8,-,N/A,,Partly Cloudy,320,2013-03-12 15:53:00
11:53 AM,46.9,28.9,50,30.26,10.0,WNW,5.8,-,N/A,,Scattered Clouds,300,2013-03-12 16:53:00
12:53 PM,50.0,27.0,41,30.24,10.0,WNW,10.4,-,N/A,,Clear,290,2013-03-12 17:53:00
1:53 PM,52.0,26.1,37,30.24,10.0,NW,10.4,-,N/A,,Clear,310,2013-03-12 18:53:00
2:53 PM,53.1,27.0,37,30.22,10.0,NW,10.4,18.4,N/A,,Mostly Cloudy,310,2013-03-12 19:53:00
3:53 PM,51.1,27.0,39,30.22,10.0,WNW,17.3,23.0,N/A,,Scattered Clouds,300,2013-03-12 20:53:00
4:53 PM,51.1,27.0,39,30.22,10.0,WNW,15.0,-,N/A,,Overcast,290,2013-03-12 21:53:00
5:53 PM,51.1,24.1,35,30.22,10.0,NW,24.2,33.4,N/A,,Partly Cloudy,310,2013-03-12 22:53:00
6:53 PM,48.0,25.0,41,30.24,10.0,NW,12.7,23.0,N/A,,Clear,320,2013-03-12 23:53:00
7:53 PM,43.0,19.9,40,30.28,10.0,NW,13.8,-,N/A,,Clear,320,2013-03-13 00:53:00
8:53 PM,41.0,19.0,41,30.31,10.0,NW,11.5,-,N/A,,Clear,310,2013-03-13 01:53:00
9:53 PM,37.9,21.9,53,30.33,10.0,NNW,9.2,-,N/A,,Clear,330,2013-03-13 02:53:00
10:53 PM,35.1,21.9,59,30.35,10.0,Calm,Calm,-,N/A,,Clear,0,2013-03-13 03:53:00
11:53 PM,36.0,21.0,55,30.36,10.0,North,3.5,-,N/A,,Clear,350,2013-03-13 04:53:00